Location: Tierz
(42.1336°N, 0.3549°W)
Time: 23:25:26
(UTC+00:00)

Cosmos 1503 Rocket - Pass Details

Date: 29 October 2020
Orbit: 752 x 791 km, 74.0° (Epoch: 05 December)

Event Time Altitude Azimuth Distance (km) Brightness Sun altitude
Rises 18:58:00 0° 337° (NNW) 3,231 7.6 -22.7°
Reaches altitude 10° 19:00:23 10° 335° (NNW) 2,307 6.8 -23.1°
Maximum altitude 19:05:34 67° 254° (WSW) 832 4.3 -24.1°
Enters shadow 19:10:14 13° 173° (S) 2,105 6.1 -24.9°
